OPS 4682 DEB, 51500

Orbit data source: Space-Track

OPS 4682 DEB, 51500 is space debris in LEO originally from a launch on Sat, 03 Apr 1965 UTC launched from the Air Force Western Test Range (AFWTR). Debris objects in space refer to the collection of defunct objects orbiting the Earth. Examples of debris include non-operational satellites, rocket bodies, and fragments generated from explosions, collisions, or faulty payload assembly.

Loading next visibility...
Identifier
51500, 1965-027GL
Orbit
LEO
Country
Flag of USUS
Related business
Manufacturer
Unknown
Mission
Spacecraft
Bus & Motor
Unknown
Mass
Unknown
Launch date (UTC)
1965-04-03 (61 years ago)
Launch vehicle
Unknown
Launch site
Air Force Western Test Range (AFWTR)
Object type
Payload
Rocket body
Debris
Shape & HBR
Unknown shape, 0.1 m
Radar Cross Section
Medium (>0.1 m² and <1 m²)

Expand to show TLE details & history
Last TLE update: 1 day ago

TLE from 1 day ago
0 OPS 4682 DEB
1 51500U 65027GL  26262.54143265  .00000136  00000-0  47184-3 0  9996
2 51500  90.2499   8.4184 0029762  30.8874 329.3988 12.93035939424418
Epoch: 2026-09-19T12:59Z
TLE epoch observation values (Epoch: 2026-09-19T12:59:39.780Z)
Latitude
0.00003°
Longitude
175.05417°
Altitude
1,272.74 km
Speed
7.229 km/s
True Right ascension
00h 33m 40s
True Declination
0° 00' 00"
Sunlit
Object was in full shadow at epoch
Visualization orbit readout
Latitude
Unknown
Longitude
Unknown
Altitude
Unknown
Speed
Unknown
Apparent Right ascension
Unknown
Apparent Declination
Unknown
Sunlit
N/A
Visualization observer readout
Local Sidereal Time
07:00:23
Azimuth
Unknown
Elevation
Unknown
Doppler factor
Unknown
Orbital elements
Apogee altitude
1,309.444 km
Perigee altitude
1,263.82 km
Semi-major axis
7,664.769 km
Eccentricity
0.00298
Inclination
90.2499°
RAAN
8.4184°
Arg. of periapsis
30.8874°
True anomaly
329.22463°
Mean anomaly
329.3988°
Eccentric anomaly
329.31177°
Mean motion
3.23441 °/min
Orbital period
111.3 mins
BSTAR
0.00047184
Loading maneuver chart data...
Computing Atmospheric mass density...
Loading historical data...
Loading historical data...
Loading historical data...
Loading historical data...
Loading historical data...
Loading historical data...
Loading historical data...

Documentation

Showing up to 5 results
|